Regional Weather Roundup
Issued by NWS

Home | Current Version | Previous Version | Graphics & Text | Print | Product List | Glossary On
Versions: 1 2 3 4 5 6 7 8 9 10 11 12 13 14 15 16 17 18 19 20 21 22 23 24 25 26 27 28 29 30 31 32 33 34 35 36 37 38 39 40 41 42 43 44 45 46 47 48 49 50
000
ASUS43 KDTX 292010
RWRMI
MICHIGAN HOURLY REGIONAL WEATHER ROUNDUP
NATIONAL WEATHER SERVICE DETROIT/PONTIAC MI
400 PM EDT SAT AUG 29 2015

NOTE: "FAIR" INDICATES FEW OR NO CLOUDS BELOW 12,000 FEET WITH NO
SIGNIFICANT WEATHER AND/OR OBSTRUCTION TO VISIBILITY.

MIZ047>049-052>055-059>063-066>070-074>076-081>083-292100-
SOUTHEAST LOWER MICHIGAN

CITY           SKY/WX    TMP DP  RH WIND       PRES   REMARKS
ADRIAN         LGT RAIN  75  66  73 CALM      30.08F
ALMA           CLOUDY    67  65  91 E3        30.09F
ANN ARBOR      CLOUDY    74  63  68 SE8       30.07F
BAD AXE        CLOUDY    65  62  88 CALM      30.12F
DETROIT CITY   CLOUDY    73  63  70 NE5       30.09F
DETROIT        CLOUDY    74  59  59 E5        30.08F
FLINT          CLOUDY    74  62  66 SE6       30.09F
GROSSE ILE     RAIN      73  64  73 CALM      30.07F
HILLSDALE      CLOUDY    74  67  79 S5        30.08F
HOWELL         CLOUDY    71  64  79 CALM      30.09S

CITY           SKY/WX    TMP DP  RH WIND       PRES   REMARKS
JACKSON        CLOUDY    71  66  84 NE6       30.08F
LAMBERTVILLE   CLOUDY    77  67  70 NE5       30.07S
LANSING        CLOUDY    69  64  84 E5        30.09F
LAPEER         NOT AVBL
MASON          CLOUDY    69  62  79 CALM      30.09S
MONROE         LGT RAIN  73  64  72 E6        30.07F
MT. CLEMENS    CLOUDY    70  64  81 NE2       30.08F
PONTIAC        CLOUDY    71  66  84 E7        30.08F
PORT HOPE        N/A     66  63  90 SE8       30.10F
PORT HURON     CLOUDY    72  66  83 NW3       30.11S
TRI CITIES     CLOUDY    69  64  84 VRB3      30.09F
YPSILANTI      CLOUDY    78  63  59 SE6       30.08F
$$
MIZ043>046-050>051-056>058-064>065-071>073-077>080-292100-
SOUTHWEST LOWER MICHIGAN

CITY           SKY/WX    TMP DP  RH WIND       PRES   REMARKS
BATTLE CREEK   CLOUDY    69  64  84 SE3       30.08S
BENTON HARBOR  CLOUDY    68  65  90 SE7       30.04S FOG
BIG RAPIDS     CLOUDY    65  62  90 E3        30.08F
COLDWATER      CLOUDY    72  67  84 CALM      30.09R
HOLLAND        CLOUDY    68  63  84 E7        30.05F
GRAND RAPIDS   CLOUDY    67  65  93 E9        30.07F
KALAMAZOO      CLOUDY    71  64  78 SE6       30.07S
MARSHALL       CLOUDY    69  64  85 CALM      30.08R
MUSKEGON       LGT RAIN  67  62  84 E8        30.06F
$$
MIZ016>042-292100-
NORTHERN LOWER MICHIGAN

CITY           SKY/WX    TMP DP  RH WIND       PRES   REMARKS
ALPENA         CLOUDY    72  61  68 S10       30.09F
BEAVER ISLAND  CLOUDY    69  62  78 SW7       30.06F
BELLAIRE       CLOUDY    72  58  61 S3        30.06F
CADILLAC       CLOUDY    69  60  72 S6        30.08F
CHARLEVOIX     CLOUDY    70  60  70 S3        30.09F
FRANKFORT      CLEAR     73  63  69 W9        30.05F
GAYLORD        CLOUDY    69  57  65 SW6       30.08F
GRAYLING       PTSUNNY   70  59  67 S6        30.09F
HARBOR SPRINGS PTSUNNY   70  61  74 CALM      30.06F
HOUGHTON LAKE  CLOUDY    67  60  78 S6        30.09F
MANISTEE       CLOUDY    70  57  64 SW5       30.07S
OSCODA         CLOUDY    67  58  74 SE5       30.10F
PELLSTON       CLOUDY    70  60  70 VRB5      30.06F
TRAVERSE CITY  CLOUDY    75  60  59 S8        30.04F
$$
MIZ007>008-015-292100-
EASTERN UPPER MICHIGAN

CITY           SKY/WX    TMP DP  RH WIND       PRES   REMARKS
KINROSS        CLOUDY    70  61  73 SW7       30.04F
MACKINAC ISLAN CLOUDY    68  58  70 W12       30.06F
NEWBERRY       CLOUDY    74  61  62 SW10      30.02F
S. S. MARIE    CLOUDY    69  60  73 CALM      30.03F
$$
MIZ004>006-011>014-085-292100-
CENTRAL UPPER MICHIGAN

CITY           SKY/WX    TMP DP  RH WIND       PRES   REMARKS
MANISTIQUE     PTSUNNY   67  62  82 S12G20    30.03F
ESCANABA       PTSUNNY   70  61  73 S14       30.03F
MENOMINEE      CLOUDY    68  59  73 CALM      30.05S
SAWYER-GWINN   MOSUNNY   77  57  50 SW6       30.02F
$$
MIZ001>003-009>011-084-292100-
WESTERN UPPER MICHIGAN

CITY           SKY/WX    TMP DP  RH WIND       PRES   REMARKS
IRON MOUNTAIN  MOSUNNY   75  60  59 SE6       30.02F
HOUGHTON       MOSUNNY   74  57  55 W16       30.00F
COPPER HARBOR    N/A     71  60  68 N15       29.98F
IRONWOOD       CLOUDY    73  63  68 SW7       30.00F
$$

ABBREVIATIONS USED IN REMARKS
   TC - TEMPERATURE IN CELSIUS
  WCI - WIND CHILL INDEX
   HX - HEAT INDEX
  VSB - VISIBILITY



USA.gov is the U.S. government's official web portal to all federal, state and local government web resources and services.